Regional Weather Roundup
Issued by NWS Sioux Falls, SD

Home | Current Version | Previous Version | Graphics & Text | Print | Product List | Glossary Off
Versions: 1 2 3 4 5 6 7 8 9 10 11 12 13 14 15 16 17 18 19 20 21 22 23 24 25 26 27 28 29 30 31 32 33 34 35 36 37 38 39 40 41 42 43 44 45 46 47 48 49 50

000
ASUS43 KFSD 310910
RWRFSD

WEATHER ROUNDUP FOR SE SOUTH DAKOTA/SW MINNESOTA/NW IOWA
NATIONAL WEATHER SERVICE SIOUX FALLS SD
400 AM CDT THU JUL 31 2014

NOTE: "FAIR" INDICATES FEW OR NO CLOUDS BELOW 12,000 FEET WITH NO
SIGNIFICANT WEATHER AND OR OBSTRUCTIONS TO VISIBILITY.


SDZ038>040-050-052>070-311000-
SOUTHEAST SOUTH DAKOTA

CITY           SKY/WX    TMP DP  RH WIND       PRES   REMARKS
CHAMBERLAIN    CLEAR     64  56  76 E7        30.05S
HURON          PTCLDY    59  55  87 CALM      30.07S
MADISON        FAIR      54  54 100 CALM      30.10S
MITCHELL       LGT RAIN  65  62  90 S6        30.08S
SIOUX FALLS    CLEAR     55  53  93 CALM      30.08F
WINNER         FAIR      66  54  65 S3        30.04S
YANKTON        MOCLDY    63  55  77 S3        30.08F
$$

MNZ071-072-080-081-089-090-097-098-311000-
SOUTHWEST MINNESOTA

CITY           SKY/WX    TMP DP  RH WIND       PRES   REMARKS
FAIRMONT       PTCLDY    59  52  77 W5        30.08S
JACKSON        MOCLDY    57  52  82 SW3       30.09F
LUVERNE        CLEAR     55  52  88 CALM      30.10S
MARSHALL       CLEAR     57  52  82 W3        30.06F
MONTEVIDEO     CLEAR     59  55  88 W5        30.07S
PIPESTONE      CLEAR     59  54  82 CALM      30.09F
REDWOOD FALLS  CLEAR     60  54  80 W3        30.06F
TRACY          CLEAR     61  55  82 SW7       30.08S
WINDOM         PTCLDY    59  55  88 CALM      30.09S
WORTHINGTON    CLEAR     55  52  88 SW5       30.10S
$$

IAZ001>003-012>014-020>022-031-032-NEZ013-014-SDZ071-311000-
NORTHWEST IOWA

CITY           SKY/WX    TMP DP  RH WIND       PRES   REMARKS
CHEROKEE       CLEAR     52  52 100 CALM      30.10S
DENISON        CLEAR     52  52 100 CALM      30.09S
ESTHERVILLE    MOCLDY    55  53  93 W3        30.08F
LE MARS        CLEAR     54  52  94 CALM      30.10S
ORANGE CITY    CLEAR     61  52  72 CALM      30.10S
SHELDON        CLEAR     50  50 100 E3        30.09S
SIOUX CITY     CLEAR     55  52  89 CALM      30.10S
SPENCER        CLEAR     52  51  97 CALM      30.10S
STORM LAKE     CLEAR     57  55  94 SW7       30.11S
$$

ABBREVIATIONS USED IN REMARKS
   TC - TEMPERATURE IN CELSIUS
  WCI - WIND CHILL INDEX
   HX - HEAT INDEX
  VSB - VISIBILITY



USA.gov is the U.S. government's official web portal to all federal, state and local government web resources and services.